EW5678 Weather Reports


Display with metric or nautical units.
time (UTC)temp
F
wind
direction
speed
MPH
gust
MPH
rain 1hr
in
rain 24hr
in
rain mn
in
humidity
%
barometer
mb
20260509031511 52 206 5.0 9.0 0.00 0.00 0.00 81 1002.8
20260509030610 52 204 4.0 10.0 0.00 0.00 0.00 81 1002.8
20260509024810 52 192 4.0 9.0 0.00 0.00 0.00 81 1002.7
20260509023910 52 202 4.0 9.0 0.00 0.00 0.00 81 1002.8
20260509023010 52 204 5.0 10.0 0.00 0.00 0.00 81 1002.8
20260509022110 52 193 4.0 10.0 0.00 0.00 0.00 81 1002.7
20260509021210 52 179 4.0 8.0 0.00 0.00 0.00 81 1002.7
20260509020310 52 190 4.0 10.0 0.00 0.00 0.00 81 1002.7
20260509015410 52 202 4.0 10.0 0.00 0.00 0.00 80 1002.6
20260509014510 52 201 4.0 10.0 0.00 0.00 0.00 79 1002.4
20260509013610 52 213 4.0 10.0 0.00 0.00 0.00 79 1002.4
20260509012710 52 211 5.0 11.0 0.00 0.00 0.00 79 1002.4
20260509010910 52 194 4.0 9.0 0.00 0.00 0.00 79 1002.1
20260509010010 52 197 4.0 9.0 0.00 0.00 0.00 78 1002.0
20260509005110 52 174 4.0 8.0 0.00 0.00 0.00 76 1002.0
20260509004210 53 176 4.0 9.0 0.00 0.00 0.00 75 1001.8
20260509003310 53 168 5.0 7.0 0.00 0.00 0.00 74 1001.7
20260509002410 54 194 3.0 6.0 0.00 0.00 0.00 72 1001.5
20260509001510 54 186 3.0 6.0 0.00 0.00 0.00 71 1001.6
20260508235710 55 183 2.0 4.0 0.00 0.00 0.00 69 1001.4
20260508234810 56 207 3.0 7.0 0.00 0.00 0.00 67 1001.3
20260508233910 56 230 4.0 11.0 0.00 0.00 0.00 64 1001.3
20260508233010 56 272 4.0 11.0 0.00 0.00 0.00 58 1001.1
20260508232110 56 276 5.0 12.0 0.00 0.00 0.00 57 1000.9
20260508231209 56 276 6.0 11.0 0.00 0.00 0.00 58 1001.0
20260508230309 56 280 9.0 19.0 0.00 0.00 0.00 58 1001.0
20260508224509 56 279 9.0 20.0 0.00 0.00 0.00 58 1000.9
20260508223609 56 286 12.0 22.0 0.00 0.00 0.00 58 1000.8
20260508222709 56 285 12.0 19.0 0.00 0.00 0.00 58 1000.7
20260508221809 56 284 8.0 18.0 0.00 0.00 0.00 59 1000.8
20260508220909 56 281 11.0 18.0 0.00 0.00 0.00 60 1001.0
20260508220009 55 280 9.0 15.0 0.00 0.00 0.00 61 1001.0
20260508215109 55 285 10.0 17.0 0.00 0.00 0.00 61 1001.0
20260508213309 55 280 12.0 20.0 0.00 0.00 0.00 60 1001.0
20260508211509 55 293 14.0 22.0 0.00 0.00 0.00 61 1001.0
20260508210609 55 291 13.0 19.0 0.00 0.00 0.00 61 1001.0
20260508205709 54 295 13.0 23.0 0.00 0.00 0.00 59 1000.9
20260508204809 54 300 15.0 25.0 0.00 0.00 0.00 61 1001.1
20260508203909 54 302 17.0 24.0 0.00 0.00 0.00 61 1000.8
20260508203009 55 301 19.0 27.0 0.00 0.00 0.00 59 1000.8
20260508202109 55 305 19.0 31.0 0.00 0.00 0.00 58 1000.7
20260508201209 55 292 18.0 27.0 0.00 0.00 0.00 58 1000.8
20260508200309 55 289 17.0 29.0 0.00 0.00 0.00 59 1000.9
20260508195409 54 289 22.0 37.0 0.00 0.00 0.00 61 1001.0
20260508194509 55 298 22.0 31.0 0.00 0.00 0.00 60 1001.1
20260508193609 55 299 22.0 33.0 0.00 0.00 0.00 56 1000.8
20260508192709 55 300 23.0 30.0 0.00 0.00 0.00 56 1000.5
20260508191809 56 297 24.0 33.0 0.00 0.00 0.00 54 1000.4
20260508190908 57 293 24.0 36.0 0.00 0.00 0.00 50 1000.3
20260508190008 57 293 25.0 37.0 0.00 0.00 0.00 47 1000.1
20260508185108 57 291 28.0 39.0 0.00 0.00 0.00 47 1000.4
20260508184208 57 288 24.0 37.0 0.00 0.00 0.00 47 1000.2
20260508183308 57 288 25.0 35.0 0.00 0.00 0.00 48 1000.3
20260508182408 58 291 22.0 38.0 0.00 0.00 0.00 46 1000.3
20260508181508 58 288 22.0 39.0 0.00 0.00 0.00 44 1000.2
20260508180608 58 282 20.0 39.0 0.00 0.00 0.00 46 1000.3
20260508175708 58 283 18.0 31.0 0.00 0.00 0.00 45 1000.1
20260508173908 56 297 17.0 30.0 0.00 0.00 0.00 50 1000.3
20260508173008 57 289 19.0 30.0 0.00 0.00 0.00 47 1000.4
20260508172108 56 289 19.0 28.0 0.00 0.00 0.00 50 1000.6
20260508170308 56 291 19.0 30.0 0.00 0.00 0.00 48 1000.5
20260508164508 55 296 20.0 31.0 0.00 0.00 0.00 47 1000.8
20260508163608 55 296 20.0 27.0 0.00 0.00 0.00 49 1000.9
20260508161808 55 295 16.0 24.0 0.00 0.00 0.00 48 1001.2
20260508160008 54 286 17.0 25.0 0.00 0.00 0.00 47 1001.3
20260508155107 54 291 16.0 25.0 0.00 0.00 0.00 47 1001.4
20260508154208 54 286 15.0 24.0 0.00 0.00 0.00 49 1001.4
20260508153308 54 287 14.0 25.0 0.00 0.00 0.00 53 1001.4
20260508152408 53 286 18.0 24.0 0.00 0.00 0.00 54 1001.4
20260508151508 53 294 15.0 24.0 0.00 0.00 0.00 57 1001.5
20260508150608 52 298 15.0 21.0 0.00 0.00 0.00 60 1001.5
20260508145707 52 289 15.0 24.0 0.00 0.00 0.00 58 1001.6
20260508144807 52 282 13.0 22.0 0.00 0.00 0.00 57 1001.6
20260508143907 51 290 16.0 23.0 0.00 0.00 0.00 63 1001.5
20260508143007 51 293 15.0 20.0 0.00 0.00 0.00 65 1001.6
20260508141207 50 291 11.0 18.0 0.00 0.00 0.00 69 1001.5
20260508135407 50 292 10.0 17.0 0.00 0.00 0.00 73 1001.6
20260508134507 49 290 10.0 18.0 0.00 0.00 0.00 73 1001.5
20260508133607 49 290 13.0 18.0 0.00 0.00 0.00 74 1001.7
20260508132707 49 293 15.0 24.0 0.00 0.00 0.00 76 1001.9
20260508130907 49 291 14.0 21.0 0.00 0.00 0.00 75 1001.8
20260508130007 49 295 16.0 25.0 0.00 0.00 0.00 76 1001.9
20260508124207 49 295 15.0 21.0 0.00 0.00 0.00 75 1001.9
20260508123307 49 295 13.0 20.0 0.00 0.00 0.00 74 1001.9
20260508121507 49 298 13.0 18.0 0.00 0.00 0.00 74 1001.7
20260508120607 48 301 12.0 20.0 0.00 0.00 0.00 72 1001.7
20260508115707 48 293 15.0 20.0 0.00 0.00 0.00 75 1001.7
20260508113907 48 294 15.0 20.0 0.00 0.00 0.00 75 1001.5
20260508113007 48 294 14.0 19.0 0.00 0.00 0.00 76 1001.5
20260508112107 48 295 14.0 19.0 0.00 0.00 0.00 76 1001.3
20260508111207 47 293 12.0 17.0 0.00 0.00 0.00 81 1001.3
20260508110307 47 297 13.0 18.0 0.00 0.00 0.00 81 1001.3
20260508104507 47 302 17.0 21.0 0.00 0.00 0.00 80 1001.0
20260508103606 47 310 13.0 22.0 0.00 0.00 0.00 80 1000.9
20260508100906 47 324 17.0 21.0 0.00 0.00 0.00 82 1000.7
20260508100006 47 322 18.0 22.0 0.00 0.00 0.00 80 1000.5
20260508095106 47 325 18.0 22.0 0.00 0.00 0.00 82 1000.5
20260508094206 47 324 17.0 21.0 0.00 0.00 0.00 83 1000.6
20260508093306 47 321 16.0 23.0 0.00 0.00 0.00 82 1000.4
20260508090606 47 329 9.0 13.0 0.00 0.00 0.00 80 1000.1
20260508085706 47 332 11.0 16.0 0.00 0.00 0.00 79 1000.2
20260508084806 47 339 10.0 14.0 0.00 0.00 0.00 78 1000.2
20260508083906 46 342 11.0 16.0 0.00 0.00 0.00 78 1000.2
20260508082106 46 336 15.0 23.0 0.00 0.00 0.00 77 1000.3
20260508081206 46 337 18.0 23.0 0.00 0.00 0.00 76 1000.5
20260508080306 46 337 16.0 23.0 0.00 0.00 0.00 78 1000.5
20260508075406 46 341 15.0 24.0 0.00 0.00 0.00 79 1000.5
20260508074506 46 345 16.0 24.0 0.00 0.00 0.00 79 1000.6
20260508073606 46 347 20.0 27.0 0.00 0.00 0.00 79 1000.6
20260508072706 46 340 19.0 29.0 0.00 0.00 0.00 82 1000.7
20260508071806 46 332 30.0 48.0 0.00 0.01 0.00 78 1000.8
20260508070906 48 326 23.0 48.0 0.00 0.02 0.00 67 1000.3
20260508065106 50 333 20.0 24.0 0.00 0.04 0.00 61 1000.3
20260508064206 50 358 15.0 23.0 0.00 0.04 0.00 54 1000.0
20260508063305 51 30 14.0 16.0 0.00 0.04 0.00 54 999.1
20260508062405 51 31 12.0 15.0 0.00 0.05 0.00 56 998.9
20260508061505 51 34 12.0 15.0 0.00 0.05 0.00 54 998.8
20260508054805 52 39 8.0 12.0 0.00 0.05 0.00 54 998.5
20260508053905 51 38 8.0 13.0 0.00 0.05 0.00 56 998.7
20260508053005 52 31 7.0 14.0 0.00 0.05 0.00 56 998.7
20260508052105 52 31 6.0 12.0 0.00 0.05 0.00 54 998.6
20260508050305 53 35 5.0 11.0 0.00 0.05 0.00 55 998.6
20260508045405 53 317 5.0 11.0 0.00 0.05 0.00 57 998.6
20260508044505 53 31 4.0 11.0 0.00 0.05 0.00 59 998.4
20260508043605 53 22 4.0 7.0 0.00 0.05 0.00 58 998.6
20260508042705 53 37 5.0 11.0 0.00 0.05 0.00 59 998.7
20260508041805 53 40 9.0 12.0 0.00 0.05 0.00 57 998.7
20260508040905 53 35 8.0 11.0 0.00 0.05 0.00 58 998.8
20260508040005 53 36 9.0 10.0 0.00 0.05 0.00 60 998.7
20260508034205 53 34 10.0 14.0 0.00 0.05 0.00 61 998.8
20260508033305 53 33 5.0 11.0 0.00 0.05 0.00 60 998.8
20260508032405 53 37 1.0 3.0 0.00 0.05 0.00 62 998.7